Weather Service Report


487 
ASUS45 KBOI 172110
RWRID 
WEATHER ROUNDUP FOR IDAHO
NATIONAL WEATHER SERVICE BOISE ID
200 PM MST WED DEC 17 2014

NOTE: "FAIR" INDICATES FEW OR NO CLOUDS BELOW 12000 FEET
WITH NO SIGNIFICANT WEATHER AND/OR OBSTRUCTIONS TO VISIBILITY

IDZ012-014-172200-
SOUTHWEST IDAHO

  
CITY           SKY/WX    TMP DP  RH WIND       PRES   REMARKS
BOISE          MOSUNNY   46  33  60 E3        29.94F                  
CALDWELL       CLOUDY    43  30  61 SE6       29.97S                  
MOUNTAIN HOME  SUNNY     43  33  67 SE17G24   29.95F                  
$$

IDZ016-017-172200-
SOUTHCENTRAL IDAHO

  
CITY           SKY/WX    TMP DP  RH WIND       PRES   REMARKS
BURLEY         SUNNY     41  30  65 NE10      29.95F                  
JEROME         SUNNY     39  31  72 NE12      29.96F WCI  32          
TWIN FALLS     SUNNY     43  32  65 NE8       29.95F                  
$$

IDZ019>023-172200-
SOUTHEAST IDAHO

  
CITY           SKY/WX    TMP DP  RH WIND       PRES   REMARKS
IDAHO FALLS    FOG       32  29  88 N3        29.98F VSB 1/2          
POCATELLO      MOSUNNY   39  31  72 NE5       29.98F                  
REXBURG        SUNNY     36  28  73 CALM      29.97F                  
$$

IDZ006-010-011-018-031-032-172200-
CENTRAL IDAHO MOUNTAINS

  
CITY           SKY/WX    TMP DP  RH WIND       PRES   REMARKS
MCCALL         CLOUDY    34  28  79 CALM      29.90F                  
HAILEY         MOSUNNY   36  25  64 NW6       29.95F WCI  31          
STANLEY          N/A     27  18  69 N5        29.94F WCI  22          
SALMON         MOSUNNY   34  25  69 N6        29.97S WCI  29          
CHALLIS        CLOUDY    29  22  75 CALM      29.97F                  
$$

IDZ002-004-006-007-026-172200-
NORTHERN IDAHO

  
CITY           SKY/WX    TMP DP  RH WIND       PRES   REMARKS
LEWISTON       LGT RAIN  43  36  76 E7        29.91F                  
LOWELL           N/A     43  33  68 VRB5      29.96F                  
COEUR D'ALENE  CLOUDY    37  30  75 NE13      29.90F WCI  29          
MULLAN PASS    PTSUNNY   29  27  92 S6        29.83F WCI  23          
$$

Return to Home page


Western Regional Climate Center, wrcc@dri.edu